Waarnemingen

Advertentie
Mijn weer
Chivenor, Groot Brittannië (3707): temperatuur & dauwpunt: 20.01.2021 14:00:00 - 26.01.2021 14:00:00 (GMT)Chivenor, Groot Brittannië (3707): temperatuur -20cm & temperatuur -100cm: 20.01.2021 14:00:00 - 26.01.2021 14:00:00 (GMT)Chivenor, Groot Brittannië (3707): windsnelheid & windstoten: 20.01.2021 14:00:00 - 26.01.2021 14:00:00 (GMT)Chivenor, Groot Brittannië (3707): windrichting: 20.01.2021 14:00:00 - 26.01.2021 14:00:00 (GMT)Chivenor, Groot Brittannië (3707): luchtdruk: 20.01.2021 14:00:00 - 26.01.2021 14:00:00 (GMT)Chivenor, Groot Brittannië (3707): zicht: 20.01.2021 14:00:00 - 26.01.2021 14:00:00 (GMT)Chivenor, Groot Brittannië (3707): neerslag: 20.01.2021 14:00:00 - 26.01.2021 14:00:00 (GMT)
Datum & Tijd tt [°C] td [°C] tt -20cm [°C] tt -100cm [°C] ff [km/u] ff [kn] fx [km/u] fx [kn] dd ppp [hPa] vv [km] rr [mm]
26.01.2021 14:00:00 7,1 6,1 - - 16 9 - - OZO 1011,3 9 0,2
26.01.2021 13:00:00 7,3 6,4 - - 22 12 - - ZZO 1011,6 5 0,2
26.01.2021 12:00:00 5,8 5,1 - - 24 13 - - OZO 1012,6 5 0,2
26.01.2021 11:00:00 5,1 4,1 - - 26 14 - - ZO 1013,3 10 0,6
26.01.2021 10:00:00 4,5 3,4 - - 22 12 - - OZO 1013,9 11 0,4
26.01.2021 09:00:00 4,1 3,2 5,2 8,0 15 8 - - OZO 1014,8 29 0,2
26.01.2021 08:00:00 3,9 2,9 - - 15 8 - - OZO 1015,1 24 0,4
26.01.2021 07:00:00 3,5 2,0 - - 15 8 - - OZO 1015,3 26 0,4
26.01.2021 06:00:00 3,8 0,8 - - 16 9 - - O 1015,9 50 0,0
26.01.2021 05:00:00 3,5 0,5 - - 15 8 - - O 1016,5 50 0,0
26.01.2021 04:00:00 3,3 0,6 - - 11 6 - - O 1016,6 50 0,0
26.01.2021 03:00:00 3,3 0,4 - - 9 5 - - O 1016,9 45 0,0
26.01.2021 02:00:00 4,0 -0,2 - - 13 7 - - O 1016,9 50 0,0
26.01.2021 01:00:00 3,5 -0,4 - - 8 4 - - O 1017,2 50 0,0
26.01.2021 00:00:00 2,2 -1,2 - - 4 2 - - ONO 1017,2 50 0,0
25.01.2021 23:00:00 2,5 -1,2 - - 4 2 - - Z 1017,3 50 0,0
25.01.2021 22:00:00 2,5 -0,9 - - 5 3 - - ONO 1017,2 50 0,0
25.01.2021 21:00:00 3,2 0,0 - - 5 3 - - OZO 1017,0 50 0,0
25.01.2021 20:00:00 3,2 0,4 - - 11 6 - - Z 1016,7 50 0,0
25.01.2021 19:00:00 3,1 -0,3 - - 13 7 - - ZZW 1016,1 50 0,0
25.01.2021 18:00:00 3,9 0,8 - - 13 7 - - ZZW 1015,6 50 0,0
25.01.2021 17:00:00 4,8 0,9 - - 11 6 - - W 1015,2 50 0,0
25.01.2021 16:00:00 5,2 2,2 - - 21 11 - - WZW 1014,6 30 0,0
25.01.2021 15:00:00 6,5 0,7 - - 21 11 - - WNW 1014,3 50 0,0
25.01.2021 14:00:00 6,0 0,5 - - 18 10 - - WNW 1013,9 50 0,0
25.01.2021 13:00:00 5,9 1,0 - - 2 1 - - Z 1013,7 35 0,0
25.01.2021 12:00:00 5,6 1,5 - - 2 1 - - ZZO 1013,3 35 0,0
25.01.2021 11:00:00 1,9 -0,6 - - 8 4 - - O 1013,0 40 0,0
25.01.2021 10:00:00 -0,6 -1,8 - - 9 5 - - O 1012,1 40 0,0
25.01.2021 09:00:00 -1,7 -2,5 5,4 8,4 9 5 - - O 1011,9 28 0,0
25.01.2021 08:00:00 -2,8 -3,6 - - 9 5 - - O 1011,0 35 0,0
25.01.2021 07:00:00 -2,7 -3,5 - - 8 4 - - O 1010,1 40 0,0
25.01.2021 06:00:00 -1,6 -2,5 - - 8 4 - - O 1009,1 40 0,2
25.01.2021 05:00:00 -1,0 -2,5 - - 9 5 - - ONO 1008,6 50 0,0
25.01.2021 04:00:00 -0,8 -2,7 - - 2 1 - - NW 1007,8 50 0,0
25.01.2021 03:00:00 -0,4 -2,9 - - 9 5 - - N 1007,3 50 0,0
25.01.2021 02:00:00 0,2 -2,9 - - 8 4 - - N 1006,7 50 0,0
25.01.2021 01:00:00 0,8 -2,5 - - 9 5 - - N 1006,0 50 0,0
25.01.2021 00:00:00 1,2 -2,8 - - 5 3 - - N 1004,7 50 0,0
24.01.2021 23:00:00 1,8 -2,6 - - 13 7 - - N 1003,2 50 0,0
24.01.2021 22:00:00 1,9 -2,0 - - 13 7 - - N 1001,9 50 0,0
24.01.2021 21:00:00 2,2 -0,8 - - 13 7 - - N 1000,7 50 0,0
24.01.2021 20:00:00 3,7 0,5 - - 26 14 48 26 N 999,1 50 0,0
24.01.2021 19:00:00 4,2 0,5 - - 31 17 50 27 NW 998,1 50 0,4
24.01.2021 18:00:00 4,1 0,5 - - 37 20 52 28 NW 997,5 8 0,4
24.01.2021 17:00:00 4,0 1,5 - - 26 14 52 28 NNW 996,9 45 0,6
24.01.2021 16:00:00 2,9 1,0 - - 42 23 55 30 NW 996,8 2,9 0,0
24.01.2021 15:00:00 4,2 2,2 - - 26 14 50 27 NNW 995,7 50 0,4
24.01.2021 14:00:00 4,2 2,6 - - 29 16 50 27 WNW 994,3 13 0,2
24.01.2021 13:00:00 6,0 3,7 - - 31 17 46 25 WNW 994,4 45 0,4
24.01.2021 12:00:00 4,7 2,8 - - 9 5 - - WNW 994,9 35 0,8
24.01.2021 11:00:00 3,6 2,2 - - 9 5 - - NW 995,3 35 0,4
24.01.2021 10:00:00 2,0 0,9 - - 5 3 - - ZO 995,1 50 0,2
24.01.2021 09:00:00 2,0 1,3 5,9 8,7 11 6 - - ONO 995,4 6 0,0
24.01.2021 08:00:00 1,7 1,0 - - 11 6 - - ONO 995,0 50 0,0
24.01.2021 07:00:00 1,7 0,9 - - 9 5 - - O 994,9 50 0,4
24.01.2021 06:00:00 2,4 1,6 - - 5 3 - - ZZW 995,1 14 0,8
24.01.2021 05:00:00 1,6 0,7 - - 9 5 - - O 995,2 50 0,4
24.01.2021 04:00:00 0,9 0,0 - - 9 5 - - O 995,8 35 0,4
24.01.2021 03:00:00 0,8 -1,1 - - 15 8 - - OZO 996,4 13 0,0
24.01.2021 02:00:00 0,7 -2,0 - - 18 10 - - O 997,1 45 0,0
24.01.2021 01:00:00 0,0 -1,9 - - 18 10 - - O 998,1 40 0,0
24.01.2021 00:00:00 1,2 -2,8 - - 5 3 - - N 1004,7 50 0,0
23.01.2021 23:00:00 -1,1 -2,3 - - 13 7 - - O 999,3 30 0,0
23.01.2021 22:00:00 -0,9 -2,4 - - 15 8 - - O 999,4 29 0,0
23.01.2021 21:00:00 -0,5 -2,4 - - 13 7 - - O 999,4 35 0,0
23.01.2021 20:00:00 -0,1 -2,1 - - 13 7 - - O 999,1 35 0,0
23.01.2021 19:00:00 0,7 -1,9 - - 8 4 - - O 999,1 45 0,0
23.01.2021 18:00:00 1,6 -3,2 - - 4 2 - - ZO 998,8 45 0,0
23.01.2021 17:00:00 3,5 -2,9 - - 11 6 - - NW 998,4 50 0,0
23.01.2021 16:00:00 6,0 -2,5 - - 13 7 - - NW 998,2 50 0,0
23.01.2021 15:00:00 6,1 -2,5 - - 21 11 - - NW 998,3 35 0,0
23.01.2021 14:00:00 6,1 -2,2 - - 22 12 - - NNW 998,3 50 0,0
23.01.2021 13:00:00 6,1 -1,5 - - 24 13 - - NW 998,2 45 0,0
23.01.2021 12:00:00 6,0 -1,6 - - 22 12 - - NNW 998,0 29 0,0
23.01.2021 11:00:00 5,5 0,3 - - 21 11 - - NNW 997,6 35 0,0
23.01.2021 10:00:00 3,9 2,2 - - 9 5 - - NW 997,1 50 0,0
23.01.2021 09:00:00 2,3 1,4 6,7 8,7 5 3 - - N 996,7 50 0,0
23.01.2021 08:00:00 -0,1 -0,6 - - 2 1 - - NW 995,9 40 0,0
23.01.2021 07:00:00 -0,9 -1,6 - - 2 1 - - ZW 995,1 3,1 0,0
23.01.2021 06:00:00 0,1 -0,6 - - 5 3 - - O 994,6 14 0,0
23.01.2021 05:00:00 0,7 0,1 - - 8 4 - - ONO 994,4 35 0,0
23.01.2021 04:00:00 0,9 0,3 - - 11 6 - - O 994,2 26 0,0
23.01.2021 03:00:00 0,6 0,0 - - 8 4 - - OZO 994,2 21 0,0
23.01.2021 02:00:00 1,0 0,1 - - 13 7 - - O 994,3 27 0,0
23.01.2021 01:00:00 1,0 0,2 - - 15 8 - - O 994,5 29 0,0
23.01.2021 00:00:00 0,5 -0,6 - - 13 7 - - O 994,9 22 0,0
22.01.2021 23:00:00 1,9 0,6 - - 11 6 - - O 995,0 22 0,0
22.01.2021 22:00:00 3,5 1,1 - - 5 3 - - W 995,5 30 0,0
22.01.2021 21:00:00 3,1 0,3 - - 11 6 - - NW 995,7 35 0,0
22.01.2021 20:00:00 4,0 0,9 - - 13 7 - - NW 995,6 28 0,0
22.01.2021 19:00:00 5,3 2,4 - - 15 8 - - WNW 995,3 45 0,0
22.01.2021 18:00:00 5,2 2,0 - - 31 17 48 26 NW 995,0 50 0,0
22.01.2021 17:00:00 5,5 2,9 - - 34 18 52 28 WNW 994,1 50 0,2
22.01.2021 16:00:00 5,3 3,0 - - 31 17 46 25 W 993,4 3,6 0,4
22.01.2021 15:00:00 5,7 3,8 - - 9 5 - - W 993,1 19 0,2
22.01.2021 14:00:00 6,6 4,0 - - 22 12 - - WZW 992,8 45 0,2
22.01.2021 13:00:00 8,2 4,1 - - 22 12 - - WZW 993,2 50 0,0
22.01.2021 12:00:00 4,8 3,8 - - 13 7 - - O 993,7 20 0,0
22.01.2021 11:00:00 3,9 3,0 - - 13 7 - - O 994,0 50 0,4
22.01.2021 10:00:00 3,3 2,2 - - 13 7 - - O 993,6 15 0,0
22.01.2021 09:00:00 2,7 2,1 7,2 8,7 13 7 - - ZO 993,3 21 0,6
22.01.2021 08:00:00 2,6 2,0 - - 9 5 - - O 992,9 8 0,2
22.01.2021 07:00:00 2,2 1,5 - - 13 7 - - ZO 992,3 40 0,6
22.01.2021 06:00:00 1,9 1,4 - - 13 7 - - O 991,7 50 0,0
22.01.2021 05:00:00 1,4 1,0 - - 8 4 - - O 991,2 30 0,0
22.01.2021 04:00:00 1,6 0,9 - - 11 6 - - O 990,8 40 0,0
22.01.2021 03:00:00 2,2 1,4 - - 9 5 - - O 990,5 23 0,0
22.01.2021 02:00:00 2,8 1,9 - - 2 1 - - W 990,2 45 0,0
22.01.2021 01:00:00 3,5 2,2 - - 4 2 - - NNW 989,9 50 0,0
22.01.2021 00:00:00 3,8 1,3 - - 9 5 - - NW 989,6 40 0,2
21.01.2021 23:00:00 5,6 3,1 - - 15 8 - - WNW 989,1 12 0,0
21.01.2021 22:00:00 5,2 3,0 - - 13 7 - - WNW 988,3 40 0,2
21.01.2021 21:00:00 6,7 2,1 - - 21 11 - - WNW 987,7 45 0,0
21.01.2021 20:00:00 6,0 2,6 - - 18 10 - - WNW 987,1 45 0,0
21.01.2021 19:00:00 5,8 1,8 - - 18 10 - - WNW 986,5 35 0,0
21.01.2021 18:00:00 5,0 2,1 - - 16 9 - - WNW 986,0 45 0,0
21.01.2021 17:00:00 6,3 2,4 - - 16 9 - - NW 985,7 50 0,0
21.01.2021 16:00:00 7,5 2,8 - - 16 9 - - WNW 985,1 50 0,0
21.01.2021 15:00:00 7,6 3,4 - - 22 12 - - NW 985,1 35 0,0
21.01.2021 14:00:00 7,9 3,5 - - 21 11 - - WNW 985,4 24 0,0
21.01.2021 13:00:00 7,9 4,4 - - 15 8 - - W 986,0 20 0,0
21.01.2021 12:00:00 7,5 5,1 - - 16 9 48 26 W 986,4 16 1,0
21.01.2021 11:00:00 7,5 3,5 - - 22 12 57 31 ZW 986,6 35 0,0
21.01.2021 10:00:00 7,1 3,7 - - 34 18 57 31 WZW 986,6 19 0,0
21.01.2021 09:00:00 7,3 3,7 8,0 8,7 41 22 68 37 WZW 986,6 24 0,0
21.01.2021 08:00:00 7,4 3,5 - - 46 25 65 35 WZW 986,2 21 0,0
21.01.2021 07:00:00 6,9 2,7 - - 46 25 70 38 WZW 986,1 29 0,0
21.01.2021 06:00:00 7,1 3,0 - - 44 24 61 33 WZW 985,7 29 0,0
21.01.2021 05:00:00 6,8 3,9 - - 46 25 65 35 WZW 985,7 8 0,0
21.01.2021 04:00:00 6,5 2,7 - - 46 25 68 37 W 985,2 35 0,0
21.01.2021 03:00:00 6,6 3,3 - - 34 18 63 34 W 984,7 35 0,0
21.01.2021 02:00:00 6,5 2,0 - - 35 19 54 29 W 984,3 45 0,0
21.01.2021 01:00:00 5,9 2,5 - - 35 19 55 30 W 983,7 50 0,0
21.01.2021 00:00:00 5,9 1,4 - - 39 21 63 34 WNW 982,6 50 0,0
20.01.2021 23:00:00 5,7 1,5 - - 42 23 59 32 WNW 981,0 50 0,2
20.01.2021 22:00:00 3,9 2,3 - - 39 21 59 32 WNW 979,6 22 0,8
20.01.2021 21:00:00 4,7 3,4 - - 26 14 50 27 WNW 978,8 12 2,2
20.01.2021 20:00:00 5,2 4,1 - - 35 19 68 37 NW 977,8 6 3,0
20.01.2021 19:00:00 6,0 4,7 - - 44 24 61 33 NW 976,3 4,1 2,6
20.01.2021 18:00:00 10,9 9,4 - - 29 16 50 27 Z 976,1 13 0,0
20.01.2021 17:00:00 11,5 9,4 - - 39 21 55 30 Z 977,4 19 0,0
20.01.2021 16:00:00 11,2 9,9 - - 29 16 48 26 ZZW 978,6 17 2,2
20.01.2021 15:00:00 11,4 10,1 - - 28 15 - - ZZW 979,7 10 0,6
20.01.2021 14:00:00 11,5 10,1 - - 29 16 48 26 ZZW 980,9 3,2 0,0

tt = temperatuur
td = dauwpunt
tt -20cm = temperatuur -20cm
tt -100cm = temperatuur -100cm
ff = windsnelheid
fx = windstoten
dd = windrichting
ppp = luchtdruk
vv = zicht
rr = neerslag

Weerstations in de omgeving